Погода в Баджаве

Индонезия     8°47′15″S   120°58′35″E
темп.,
°C
ветер,
м/с
пор.,
м/с
влажн.,
%
обл.,
%
осадки,
мм/ч
давл.,
гПа
погр.,
м
27 сентября, пн
пн2723:00+19ю119778 0.0 101360
02:00+19ююз119398 0.0 101154
05:00+18юз119564 0.0 101220
08:00+23ю126895 0.0 1013459
11:00+27ю2259100 0.1 10121482
14:00+25ю227157 0.3 1009801
17:00+23ююв128070 0.3 1009214
20:00+20юв119410 0.3 101219
28 сентября, вт
вт2823:00+19ю119793 0.0 101248
02:00+18ююв119724 0.0 101153
05:00+19ю119599 0.0 101127
08:00+24ю127099 0.0 1013485
11:00+28ю235620 0.0 10111544
14:00+27ююв326468 0.4 10091249
17:00+23ююв128662 1.1 1010352
20:00+21ююв129491 1.3 1012156
29 сентября, ср
ср2923:00+20ю129659 0.3 1013141
02:00+20ю129742 0.3 101162
05:00+19ю119837 0.1 101244
08:00+23ююв117654 0.1 1013420
11:00+30юв134662 0.0 10121428
14:00+30юв125115 0.1 10091736
17:00+25юв127747 0.5 1010392
20:00+21ююв129760 0.7 101276
30 сентября, чт
чт3023:00+22ююв119496 0.2 1013130
02:00+22ююв119189 0.3 101199
05:00+20ююз11948 0.1 101135
08:00+25ююв116845 0.1 1013490
11:00+30ююв23475 0.0 10111556
14:00+30ююв235123 0.0 10091730
17:00+25ю117115 0.1 1009463
20:00+21ю119540 0.1 101293
1 октября, пт
пт123:00+20ю129533 0.0 1013103
02:00+19з01966 0.0 101120
05:00+18з01900 0.0 101214
08:00+25ююв125810 0.0 1013509
11:00+30ююв24443 0.0 10111544
14:00+30ююв23475 0.0 10081713
17:00+26юв126822 0.1 1009573
20:00+21ю1194100 0.1 101291